Wind_Speed
8 8 8 9 9 9 9 9 9 9 10 9 8 8 7 7 6 5 5 4 5 5 5 4 4 4 3 2 2 3 2 1 1 0 0 1 1 2 2 2 2 2 2 2 2 2 2 2 2
9 9 9 10 10 10 9 9 10 9 10 9 8 8 8 7 8 7 6 5 5 5 5 5 4 5 4 4 3 3 2 2 1 1 1 2 2 2 3 3 3 3 3 2 2 3 3 3 3
10 9 10 10 11 10 9 10 10 10 10 10 9 9 8 8 7 8 7 6 5 5 5 4 4 5 5 5 4 3 3 3 2 1 1 2 2 3 3 3 4 3 3 3 2 2 3 3 3
11 11 11 11 11 10 10 9 10 10 10 10 9 9 9 9 8 8 7 6 5 5 5 5 5 5 6 5 4 4 3 3 2 2 2 3 3 3 4 4 4 4 3 3 2 2 3 3 4
11 11 12 12 11 11 10 10 10 10 11 10 10 9 9 8 8 8 7 7 6 6 5 5 5 5 5 5 4 4 4 3 3 3 3 3 3 3 4 4 4 3 3 3 3 3 3 4 4
11 11 12 11 12 11 11 11 11 11 11 11 10 10 9 9 9 9 8 7 7 6 6 5 6 6 6 6 6 5 4 4 3 3 4 4 4 3 3 4 4 3 3 3 4 4 4 5 5
11 11 11 11 12 11 11 11 12 12 11 11 11 10 10 10 9 9 9 8 8 8 7 6 7 7 7 7 6 5 4 4 4 4 4 4 4 3 3 4 4 3 4 4 5 5 6 6 6
11 12 11 11 11 11 11 12 12 12 12 12 11 11 11 10 10 9 9 9 9 9 8 8 8 7 7 7 7 5 4 4 4 4 4 4 4 3 3 4 4 4 4 5 5 6 6 6 6
11 12 11 11 11 11 11 11 12 12 11 11 12 11 12 11 10 10 9 10 10 10 9 9 8 8 8 7 6 6 5 4 3 3 3 3 3 3 4 4 4 5 5 5 5 6 6 6 6
11 12 11 11 11 11 11 10 11 11 11 11 11 11 11 11 10 10 10 11 10 10 9 10 9 9 8 7 7 6 5 4 3 2 3 3 3 3 3 3 4 5 5 5 5 6 6 6 7
11 11 12 11 11 11 11 10 10 11 11 11 11 11 12 11 10 10 10 11 11 11 10 11 10 10 9 8 7 5 5 4 3 3 3 3 3 3 3 3 3 4 5 5 5 6 5 6 6
12 12 12 12 11 11 11 10 11 11 11 12 12 12 11 11 11 10 11 11 11 11 11 11 10 9 9 8 6 5 4 4 4 3 4 3 3 3 3 3 3 5 5 5 5 6 6 6 6
11 11 12 12 12 11 10 10 11 10 11 12 12 12 12 12 11 11 11 12 11 11 12 12 10 10 9 8 7 6 5 4 4 4 4 4 3 3 3 3 4 5 5 5 5 5 6 6 6
11 11 12 12 12 12 11 10 11 11 10 11 12 12 12 11 10 11 11 11 11 10 10 10 9 9 9 8 8 7 6 5 4 4 3 3 4 4 3 4 4 5 5 5 5 5 5 5 5
10 12 12 12 13 13 12 11 11 11 11 11 12 12 11 12 11 11 11 12 11 10 10 10 10 10 10 9 8 8 6 5 4 4 3 3 4 4 4 4 4 5 5 5 5 5 5 5 5
9 8 10 10 11 12 12 12 12 12 12 12 12 13 12 11 11 11 11 11 11 11 10 10 10 10 10 9 9 8 8 6 5 4 4 4 4 4 4 4 4 5 5 4 4 5 5 5 5
9 9 9 9 10 11 11 10 11 11 12 12 12 13 12 11 11 10 10 11 11 11 11 10 10 9 9 10 9 9 8 7 6 5 4 4 5 4 4 4 4 5 5 4 4 5 6 6 5
9 9 10 10 10 10 10 10 10 10 11 12 12 12 11 11 10 9 9 9 11 11 11 11 11 9 9 10 9 9 8 7 6 5 5 5 5 5 4 4 4 5 5 4 5 6 6 6 6
10 10 10 10 11 10 11 11 11 11 11 11 10 11 11 11 11 10 9 9 11 11 11 11 11 10 10 9 9 9 9 8 7 6 6 6 5 5 5 5 5 5 4 4 5 6 6 6 5
10 11 11 11 11 11 11 11 12 11 11 11 11 11 11 11 11 11 11 11 12 12 12 12 12 11 10 9 9 9 9 8 8 7 7 6 6 6 6 5 5 5 4 4 5 6 6 5 5
10 10 11 11 12 12 11 11 11 11 11 11 10 10 11 12 13 12 12 12 13 13 12 12 12 12 11 10 9 9 9 9 8 7 7 6 6 6 6 5 4 4 4 5 5 6 6 5 5
9 10 11 11 11 12 12 11 11 12 12 12 11 11 11 11 13 13 13 13 13 14 13 12 12 12 11 11 10 9 9 9 9 8 7 7 6 6 6 5 5 4 4 5 5 5 5 5 5
10 11 11 10 11 12 13 12 11 12 11 12 12 12 12 12 13 13 13 13 13 14 14 13 13 13 12 11 11 10 9 9 8 7 6 6 6 6 6 5 5 4 4 5 5 5 5 5 4
10 11 11 10 10 11 11 12 11 11 10 11 12 12 13 13 13 13 13 13 13 14 14 14 14 14 13 12 12 11 10 9 8 7 7 6 6 5 5 5 5 5 5 5 5 5 5 5 4
10 11 11 11 10 10 10 11 10 11 11 10 11 12 12 13 14 14 14 14 14 14 14 15 15 14 14 13 12 12 10 9 9 8 7 6 5 5 5 5 5 5 6 6 6 5 5 5 5
10 10 11 11 10 10 10 11 9 9 11 11 11 12 12 13 13 13 14 14 14 15 15 15 15 14 14 13 13 12 11 10 9 9 8 7 6 6 6 6 6 6 6 6 5 5 5 5 5
10 10 10 12 11 10 9 10 9 9 10 11 11 12 12 13 13 13 14 14 14 15 16 16 14 14 14 14 13 13 12 10 9 9 9 8 7 7 7 7 7 6 6 6 5 6 6 5 5
11 11 11 12 12 10 9 9 9 9 10 10 10 11 12 12 13 13 14 15 14 14 15 16 15 14 13 13 13 13 12 11 10 9 9 8 8 7 7 6 7 6 6 6 6 6 6 6 6
12 13 12 12 12 12 11 9 8 7 8 9 10 10 11 12 13 13 14 15 15 14 15 15 15 15 13 13 13 13 12 11 10 10 8 9 9 8 7 7 7 7 7 7 7 7 7 7 7
12 12 12 12 11 11 12 11 10 9 8 8 9 9 10 11 12 12 14 15 15 15 15 15 14 14 13 13 13 13 12 11 11 10 10 9 9 9 8 8 8 8 8 8 8 7 7 7 8
Wind_Direction
228 222 215 210 215 213 217 220 209 200 201 203 200 200 196 201 204 211 211 210 201 193 188 185 190 181 180 190 205 192 193 195 194 197 288 286 298 322 332 331 325 317 306 292 267 242 237 246 240
230 223 216 215 218 220 221 220 218 209 209 210 209 209 210 213 217 222 220 218 205 195 195 200 204 207 205 204 199 197 204 202 209 254 296 277 288 309 317 312 310 311 302 284 263 257 251 253 252
230 224 219 219 221 224 224 224 223 218 213 212 213 214 217 221 222 222 219 216 209 198 203 209 217 224 213 208 204 216 218 214 230 276 309 296 290 300 305 303 300 302 297 283 269 262 258 257 259
228 226 221 219 220 225 227 223 218 218 219 216 215 217 220 224 224 221 216 210 206 207 207 213 223 217 219 219 220 223 226 228 241 287 315 316 295 289 293 296 297 299 291 281 265 257 259 263 267
226 225 223 221 222 226 226 224 218 220 220 220 217 220 221 221 220 217 213 211 205 210 216 217 221 217 216 216 216 230 233 234 258 290 307 309 301 293 291 294 297 297 285 273 262 263 270 272 272
224 226 221 222 225 227 225 224 223 224 226 225 222 221 221 218 219 222 224 217 216 216 219 218 220 213 212 223 228 234 234 241 255 281 303 304 302 300 293 295 297 291 278 272 267 269 271 272 273
223 223 221 221 225 227 224 223 223 223 225 224 222 221 219 217 220 223 226 222 222 224 222 224 223 215 215 220 224 230 232 246 262 285 299 311 306 304 302 299 298 288 280 275 272 273 274 276 277
224 227 225 224 226 225 224 224 223 223 223 225 221 221 221 220 222 226 226 225 227 229 226 226 221 213 219 216 221 232 236 251 267 287 292 310 311 309 309 301 299 296 289 284 280 282 282 280 278
226 230 230 228 225 226 228 225 220 221 220 219 220 223 224 224 227 229 227 228 230 230 228 223 222 222 224 221 225 230 237 246 262 281 286 302 312 321 318 307 302 295 295 293 288 287 286 285 280
228 230 231 229 223 222 227 225 222 220 217 219 223 226 227 229 229 229 230 230 235 232 232 228 223 220 219 221 220 223 227 238 260 276 289 288 295 311 316 311 305 302 302 301 296 289 287 286 283
229 231 230 226 222 221 226 229 228 227 223 220 226 225 228 230 233 232 231 233 237 235 233 227 220 220 216 213 214 219 222 230 256 283 286 281 286 301 309 310 312 318 311 304 303 296 290 289 281
233 228 225 226 225 225 229 233 228 228 227 224 225 226 228 235 238 236 230 230 232 234 229 224 223 225 223 218 219 226 228 236 250 274 290 283 283 298 308 324 329 328 322 315 308 302 296 293 285
234 227 225 226 228 230 230 231 226 226 227 224 226 229 230 237 239 234 229 230 231 231 228 220 224 225 219 218 223 226 229 237 252 272 281 282 284 302 313 324 324 319 319 323 323 311 304 299 288
234 229 230 230 231 230 227 225 226 227 229 228 227 228 227 230 237 235 232 233 234 231 223 220 225 225 221 218 224 225 227 237 252 260 270 282 289 299 313 322 326 325 326 323 320 314 309 306 295
234 228 227 229 231 232 231 226 227 232 231 231 230 229 231 231 236 239 237 234 230 225 223 219 223 226 226 223 227 227 227 236 250 252 264 278 289 299 306 316 323 325 324 326 325 319 314 306 294
234 224 226 227 227 231 233 230 231 234 233 231 230 229 232 234 235 236 232 232 228 222 219 219 219 222 225 223 226 230 231 239 248 251 264 282 292 298 302 313 320 323 325 328 326 322 321 314 299
237 235 233 229 227 231 236 234 231 230 231 230 228 227 230 233 234 231 232 231 227 219 219 219 222 219 220 221 223 228 230 230 241 251 267 279 289 296 298 304 312 320 320 321 327 325 322 317 304
238 236 237 235 232 230 231 232 233 231 231 232 231 227 226 229 230 229 231 229 224 218 220 219 222 220 217 218 221 225 226 226 235 246 261 274 283 287 292 298 301 307 313 319 326 327 324 319 308
235 237 238 237 234 230 226 228 230 230 230 231 230 228 224 225 228 229 226 222 214 214 215 216 215 214 215 217 223 226 227 230 238 247 259 270 275 278 286 296 299 301 308 318 324 328 326 323 310
236 239 240 240 237 235 229 228 229 229 231 233 236 228 221 223 223 225 222 216 214 214 214 214 213 211 216 222 223 227 228 233 240 248 257 267 270 275 282 287 292 296 304 315 323 327 326 323 312
240 242 240 242 240 241 238 230 229 229 230 233 233 227 221 221 220 220 222 217 214 214 213 213 212 212 216 219 221 226 230 236 239 245 255 265 270 276 283 281 282 291 297 304 315 323 321 319 312
241 243 242 241 239 234 236 233 231 231 231 232 234 232 225 222 221 222 221 219 217 213 211 214 216 214 214 217 222 227 232 236 237 245 255 263 265 271 274 273 273 282 292 297 306 314 316 313 311
237 240 237 235 235 235 237 238 230 234 233 230 232 232 229 224 222 221 219 218 217 214 212 214 218 217 217 222 226 230 234 239 235 243 257 263 264 268 268 269 270 276 288 296 299 305 310 307 304
232 233 230 228 231 235 239 239 233 234 231 228 229 231 231 227 223 225 224 221 218 216 214 217 218 220 224 227 230 233 234 236 236 243 254 259 262 263 266 270 270 277 285 292 297 298 300 298 295
231 231 230 231 235 235 238 239 235 231 230 231 230 230 230 227 224 225 226 224 222 218 217 219 218 222 226 230 232 233 235 237 237 238 246 251 252 254 260 267 272 279 285 289 293 296 295 293 290
235 231 231 235 237 236 236 239 237 231 230 231 232 229 226 224 222 224 226 223 224 222 221 221 220 221 224 226 228 231 236 238 238 239 241 247 252 256 260 263 269 278 283 289 291 295 295 294 291
233 229 232 234 239 239 239 235 234 228 228 233 234 230 230 228 223 224 223 225 223 223 221 220 220 223 225 225 226 230 236 236 235 236 237 243 251 256 260 261 264 271 277 286 291 293 295 296 296
233 232 235 240 244 242 243 245 243 233 232 236 236 231 229 223 224 224 222 224 222 222 221 221 223 224 225 223 224 227 230 232 234 237 235 241 249 253 254 260 264 267 273 281 288 291 289 291 291
236 238 241 241 241 246 246 245 238 232 231 233 231 227 226 221 223 223 222 223 220 219 220 223 224 224 225 224 224 225 227 233 237 240 244 245 248 251 252 255 264 264 271 278 284 288 287 288 290
240 241 239 238 246 248 247 244 241 237 235 232 230 227 223 225 224 222 220 222 220 219 221 221 220 220 222 223 223 226 228 232 235 240 246 250 248 249 252 254 258 266 271 276 284 290 289 289 288
Height
5880 5881 5882 5883 5885 5885 5885 5886 5886 5888 5889 5890 5891 5893 5894 5895 5897 5900 5898 5897 5898 5898 5899 5899 5900 5900 5901 5902 5902 5903 5903 5903 5903 5902 5902 5902 5901 5901 5901 5900 5900 5899 5899 5898 5898 5897 5897 5897 5897
5879 5880 5881 5882 5883 5883 5885 5885 5886 5887 5889 5889 5891 5892 5893 5894 5895 5896 5896 5897 5897 5898 5899 5899 5900 5900 5901 5902 5903 5903 5903 5903 5903 5902 5902 5901 5901 5901 5900 5900 5899 5899 5898 5898 5897 5897 5897 5897 5897
5877 5878 5880 5881 5881 5882 5883 5884 5885 5886 5887 5889 5890 5891 5892 5894 5894 5895 5896 5896 5897 5898 5898 5899 5900 5900 5901 5902 5902 5903 5903 5903 5903 5903 5902 5901 5901 5900 5900 5899 5899 5898 5898 5897 5897 5897 5897 5897 5896
5875 5877 5878 5879 5879 5881 5882 5882 5883 5885 5886 5887 5889 5890 5891 5893 5893 5894 5894 5895 5896 5897 5898 5899 5900 5900 5901 5902 5902 5903 5903 5903 5903 5903 5902 5901 5901 5900 5900 5899 5898 5898 5897 5897 5896 5896 5896 5896 5896
5872 5874 5876 5876 5878 5879 5880 5881 5882 5883 5884 5885 5887 5889 5890 5891 5892 5893 5893 5894 5896 5897 5898 5899 5899 5900 5901 5901 5902 5902 5903 5903 5902 5902 5902 5901 5900 5900 5899 5898 5898 5897 5896 5896 5896 5895 5895 5895 5894
5870 5872 5874 5874 5876 5877 5878 5880 5881 5882 5883 5884 5886 5888 5889 5890 5891 5892 5893 5894 5895 5896 5897 5898 5899 5899 5900 5901 5901 5902 5902 5902 5902 5902 5901 5901 5900 5899 5898 5898 5897 5896 5896 5895 5895 5894 5894 5893 5893
5870 5870 5871 5873 5874 5875 5877 5878 5879 5880 5881 5883 5885 5886 5887 5889 5890 5891 5892 5893 5894 5895 5896 5897 5898 5898 5899 5900 5901 5901 5902 5902 5902 5902 5901 5900 5900 5899 5898 5897 5896 5895 5895 5894 5894 5893 5893 5892 5892
5867 5869 5869 5871 5872 5873 5875 5876 5877 5878 5880 5881 5883 5885 5886 5887 5888 5889 5890 5892 5893 5894 5895 5896 5897 5898 5898 5899 5900 5900 5901 5901 5901 5901 5900 5900 5899 5898 5897 5896 5895 5895 5894 5893 5893 5892 5891 5891 5890
5866 5868 5868 5869 5871 5872 5872 5874 5875 5877 5878 5879 5881 5883 5884 5886 5887 5888 5889 5890 5892 5893 5894 5895 5896 5897 5898 5898 5898 5899 5900 5900 5900 5900 5899 5899 5898 5898 5897 5896 5895 5894 5893 5892 5891 5891 5890 5889 5889
5864 5865 5866 5867 5869 5869 5870 5872 5873 5875 5876 5877 5879 5881 5882 5884 5885 5886 5888 5889 5890 5891 5892 5894 5895 5895 5896 5897 5897 5898 5899 5899 5899 5899 5899 5898 5898 5897 5896 5895 5894 5893 5892 5891 5890 5889 5888 5888 5887
5862 5863 5864 5865 5866 5868 5869 5870 5871 5872 5874 5876 5877 5879 5880 5882 5883 5885 5886 5888 5889 5890 5891 5892 5894 5894 5895 5895 5896 5897 5898 5898 5898 5898 5898 5897 5897 5896 5895 5894 5893 5892 5891 5890 5889 5888 5887 5886 5886
5860 5861 5862 5863 5864 5866 5867 5868 5869 5871 5873 5874 5876 5877 5878 5880 5882 5883 5884 5886 5887 5888 5889 5891 5892 5893 5894 5894 5895 5896 5897 5897 5897 5897 5897 5896 5896 5895 5894 5893 5892 5891 5890 5889 5888 5887 5886 5885 5884
5858 5858 5859 5861 5862 5863 5865 5866 5867 5869 5870 5872 5874 5875 5877 5878 5879 5880 5882 5884 5885 5887 5888 5889 5890 5892 5893 5893 5894 5895 5896 5896 5896 5896 5896 5896 5895 5894 5893 5892 5891 5890 5889 5888 5887 5886 5885 5884 5883
5855 5856 5857 5858 5859 5861 5862 5864 5866 5867 5868 5870 5871 5873 5874 5876 5877 5878 5880 5881 5883 5885 5886 5887 5889 5890 5891 5892 5893 5894 5895 5895 5895 5895 5895 5894 5894 5893 5892 5891 5890 5889 5888 5887 5885 5884 5883 5882 5881
5852 5854 5855 5856 5857 5858 5860 5862 5863 5865 5866 5868 5869 5870 5872 5874 5875 5876 5878 5879 5881 5882 5884 5885 5887 5889 5890 5891 5892 5893 5893 5894 5894 5894 5894 5893 5893 5892 5891 5891 5889 5888 5887 5885 5884 5883 5882 5881 5880
5851 5852 5853 5854 5855 5856 5860 5860 5861 5862 5864 5865 5867 5868 5870 5871 5873 5874 5876 5877 5878 5880 5882 5884 5885 5887 5888 5889 5890 5891 5892 5892 5892 5892 5892 5892 5892 5891 5890 5889 5888 5887 5886 5884 5883 5882 5881 5879 5878
5849 5850 5851 5852 5853 5854 5856 5858 5859 5860 5861 5863 5864 5866 5867 5869 5870 5872 5873 5875 5876 5878 5880 5882 5883 5885 5886 5887 5888 5889 5890 5891 5891 5891 5891 5891 5890 5890 5889 5888 5887 5886 5884 5883 5882 5881 5879 5878 5877
5847 5848 5849 5850 5851 5852 5854 5855 5856 5857 5859 5860 5862 5863 5865 5866 5868 5869 5871 5872 5874 5876 5878 5879 5881 5883 5884 5885 5886 5887 5888 5889 5889 5889 5889 5889 5889 5888 5887 5886 5885 5884 5883 5882 5881 5880 5878 5877 5875
5845 5846 5847 5848 5848 5850 5851 5853 5854 5855 5856 5858 5859 5861 5862 5864 5865 5867 5869 5870 5872 5874 5876 5877 5879 5881 5882 5883 5884 5885 5886 5887 5888 5888 5888 5887 5887 5886 5886 5885 5884 5883 5882 5881 5880 5879 5877 5875 5874
5842 5843 5844 5845 5846 5847 5849 5850 5851 5852 5854 5855 5857 5859 5860 5861 5863 5864 5866 5868 5870 5871 5873 5875 5876 5878 5880 5881 5882 5883 5884 5885 5886 5886 5886 5885 5885 5885 5884 5883 5883 5882 5881 5880 5879 5878 5876 5874 5874
5840 5841 5842 5843 5844 5845 5846 5848 5849 5850 5851 5853 5854 5856 5857 5859 5860 5862 5863 5865 5867 5869 5870 5872 5874 5876 5877 5879 5880 5881 5882 5882 5883 5884 5884 5884 5883 5883 5882 5882 5881 5880 5880 5879 5878 5877 5875 5874 5873
5837 5838 5839 5840 5841 5842 5844 5845 5846 5847 5848 5850 5852 5853 5855 5856 5857 5859 5861 5862 5864 5866 5868 5870 5871 5873 5875 5877 5878 5879 5880 5880 5881 5882 5882 5882 5881 5881 5881 5880 5880 5879 5878 5878 5877 5876 5874 5873 5872
5835 5835 5836 5837 5838 5839 5840 5842 5844 5844 5846 5847 5849 5850 5852 5854 5855 5856 5858 5860 5861 5863 5865 5867 5869 5871 5873 5874 5875 5876 5877 5878 5878 5879 5879 5879 5879 5879 5879 5878 5878 5878 5877 5876 5875 5874 5873 5872 5871
5832 5833 5834 5834 5835 5837 5837 5839 5841 5842 5843 5844 5846 5847 5849 5851 5852 5853 5855 5857 5859 5861 5862 5865 5866 5868 5870 5872 5873 5874 5875 5875 5876 5877 5877 5877 5877 5877 5877 5877 5877 5876 5876 5875 5874 5873 5872 5871 5870
5830 5831 5832 5832 5833 5834 5835 5835 5838 5839 5840 5841 5843 5844 5846 5847 5849 5850 5852 5854 5856 5858 5860 5862 5864 5865 5867 5869 5870 5871 5872 5873 5874 5875 5875 5875 5875 5876 5875 5875 5875 5874 5874 5873 5872 5871 5870 5869 5868
5828 5829 5831 5831 5831 5831 5832 5832 5835 5836 5837 5838 5839 5841 5842 5844 5846 5847 5849 5851 5853 5855 5857 5859 5861 5862 5864 5866 5867 5869 5869 5871 5872 5872 5873 5873 5873 5873 5873 5873 5873 5872 5872 5871 5870 5870 5869 5868 5867
5825 5826 5827 5828 5828 5829 5829 5830 5832 5833 5834 5835 5837 5838 5839 5841 5842 5844 5846 5848 5850 5852 5854 5856 5858 5859 5861 5863 5864 5866 5867 5868 5869 5870 5870 5871 5871 5871 5871 5871 5871 5871 5870 5869 5869 5868 5867 5866 5865
5823 5823 5824 5825 5826 5826 5827 5827 5829 5829 5831 5832 5834 5835 5836 5837 5839 5841 5842 5845 5847 5848 5850 5852 5854 5856 5858 5859 5861 5863 5864 5865 5866 5867 5868 5868 5869 5869 5868 5868 5868 5868 5868 5867 5867 5866 5865 5864 5864
5820 5821 5821 5822 5823 5824 5824 5828 5826 5827 5828 5829 5830 5832 5833 5834 5835 5837 5839 5841 5843 5845 5847 5849 5851 5853 5855 5856 5858 5860 5861 5863 5864 5864 5865 5866 5866 5866 5866 5866 5866 5866 5866 5865 5865 5864 5863 5863 5862
5817 5818 5819 5820 5821 5821 5821 5826 5824 5825 5826 5827 5828 5829 5830 5831 5832 5834 5836 5838 5840 5842 5844 5846 5848 5850 5852 5853 5855 5857 5859 5860 5861 5862 5863 5863 5863 5864 5864 5863 5864 5864 5864 5863 5862 5862 5861 5860 5860